Regional Weather Roundup
Issued by NWS

Home | Current Version | Previous Version | Text Only | Print | Product List | Glossary Off
Versions: 1 2 3 4 5 6 7 8 9 10 11 12 13 14 15 16 17 18 19 20 21 22 23 24 25 26 27 28 29 30 31 32 33 34 35 36 37 38 39 40 41 42 43 44 45 46 47 48 49 50

000
ASUS43 KOAX 230710
RWRNE

WEATHER ROUNDUP FOR NEBRASKA
NATIONAL WEATHER SERVICE OMAHA NE
100 AM CST THU FEB 23 2017

NOTES: SATELLITE DATA IS BEING USED TO AUGMENT CLOUD COVER ABOVE
       12000 FEET.
       "FAIR" INDICATES FEW OR NO CLOUDS BELOW 12,000 FEET WITH NO
       SIGNIFICANT WEATHER AND/OR OBSTRUCTIONS TO VISIBILITY.

  * THESE STATIONS DO NOT REPORT WEATHER SUCH AS RAIN...SNOW OR FOG.

NEZ001>004-019>022-054>056-230800-
NEBRASKA PANHANDLE

CITY           SKY/WX    TMP DP  RH WIND       PRES   REMARKS
SCOTTSBLUFF    CLOUDY    35  31  85 NE18      29.77F WCI  24
ALLIANCE       CLOUDY    33  30  88 NE15      29.79S WCI  23
CHADRON        LGT SNOW  32  28  85 NE14      29.86F FOG     WCI  22
KIMBALL        CLEAR     34  30  86 NE12      29.73F WCI  25
SIDNEY         PTCLDY    35  29  78 NE14      29.75F WCI  26
$$

NEZ057>060-069>072-079>082-230800-
SOUTHWEST NEBRASKA

CITY           SKY/WX    TMP DP  RH WIND       PRES   REMARKS
NORTH PLATTE   MOCLDY    38  33  82 NE16G22   29.78R WCI  29
IMPERIAL       CLEAR     36  27  69 NE14      29.74S WCI  27
LEXINGTON      CLEAR     39  32  75 NE10      29.76F WCI  32
MCCOOK         CLEAR     37  28  70 NE10      29.72S WCI  30
OGALLALA       CLEAR     38  33  82 NE12      29.75F WCI  31
$$

NEZ005>010-023>029-035>040-094-230800-
NORTH CENTRAL NEBRASKA

CITY           SKY/WX    TMP DP  RH WIND       PRES   REMARKS
VALENTINE      CLOUDY    33  30  88 N10       29.87F WCI  25
AINSWORTH      CLOUDY    34  33  98 N18G24    29.85S FOG     WCI  23
BROKEN BOW     CLOUDY    39  36  89 N14G28    29.78R WCI  31
O`NEILL        CLOUDY    36  35  94 N14       29.87R WCI  27
ORD            CLOUDY    40  36  86 NE15G26   29.80R WCI  32
THEDFORD       CLOUDY    35  32  90 NE16G22   29.84S WCI  25
$$

NEZ041-046>049-061>064-073>077-083>087-230800-
SOUTH CENTRAL NEBRASKA

CITY           SKY/WX    TMP DP  RH WIND       PRES   REMARKS
GRAND ISLAND   CLEAR     37  34  89 NE10      29.78F WCI  30
AURORA         CLEAR     40  36  83 NE15      29.77S WCI  32
HASTINGS       CLEAR     40  32  73 NE10      29.77S WCI  33
HEBRON         CLOUDY    42  33  71 E7        29.75R
HOLDREGE       CLEAR     39  30  70 NE13      29.75S WCI  32
KEARNEY *      CLEAR     39  30  70 NE12      29.77S WCI  32
YORK           CLEAR     41  37  87 NE16      29.77S
$$

NEZ011>018-030>034-042>045-230800-
NORTHEAST NEBRASKA

CITY           SKY/WX    TMP DP  RH WIND       PRES   REMARKS
NORFOLK        CLOUDY    40  34  79 N23G30    29.80F WCI  30
ALBION         MOCLDY    41  36  81 N12       29.80R
BLAIR          CLEAR     44  38  78 NE7       29.79R
FREMONT        CLEAR     43  37  78 CALM      29.82R
TEKAMAH        CLEAR     40  36  86 N10       29.80F WCI  33
WAYNE          CLOUDY    39  37  93 N18G24    29.82S WCI  30
$$

NEZ050>053-065>068-078-088>093-230800-
SOUTHEAST NEBRASKA

CITY           SKY/WX    TMP DP  RH WIND       PRES   REMARKS
LINCOLN        CLEAR     45  38  76 NE15      29.78S
OMAHA EPPLEY   CLEAR     43  36  76 N7        29.80R
BEATRICE       CLEAR     47  39  71 NE10      29.75F
FALLS CITY     CLEAR     50  39  66 NE9       29.74S
NEBRASKA CITY  CLEAR     46  35  66 NE13      29.76F
PLATTSMOUTH    CLEAR     45  36  70 N7        29.78S
$$

NEZ044-045-051>053-067-230800-
OMAHA AREA

CITY           SKY/WX    TMP DP  RH WIND       PRES   REMARKS
OMAHA EPPLEY   CLEAR     43  36  76 N7        29.80R
BLAIR          CLEAR     44  38  78 NE7       29.79R
FREMONT        CLEAR     43  37  78 CALM      29.82R
MILLARD        CLEAR     49  40  71 N5        29.80R
OFFUTT AFB     CLEAR     47  38  69 N12       29.79R
PLATTSMOUTH    CLEAR     45  36  70 N7        29.78S
WAHOO          FAIR      41  36  81 N10       29.81R
$$



USA.gov is the U.S. government's official web portal to all federal, state and local government web resources and services.